Theta_e
324 323 323 316 314 316 308 305 304 307 312 314 323 324 327 328 329 332 335 336 337 338 339 342 341 342 345 344 345 346 345 343
319 322 318 317 318 307 306 298 295 301 303 305 313 320 325 327 329 331 334 333 335 337 339 340 342 344 346 347 346 343 342 340
311 314 309 311 310 307 304 303 297 295 300 311 314 322 321 324 330 331 333 332 334 335 336 338 337 343 342 343 340 340 340 342
305 306 306 307 306 306 302 300 300 299 301 314 322 322 325 325 330 334 335 332 331 332 333 333 334 336 337 339 339 340 342 340
303 305 306 306 307 305 303 303 303 299 302 315 320 321 326 325 332 330 330 331 330 331 331 331 331 334 336 338 335 335 334 334
300 304 305 305 306 307 306 303 303 303 305 311 314 316 319 326 331 330 330 331 330 331 332 332 330 329 329 330 331 331 331 331
305 305 304 306 307 307 305 307 303 305 306 310 314 316 321 324 331 332 332 329 329 330 331 331 330 331 330 330 331 331 330 329
306 308 306 303 307 307 308 307 306 307 307 316 324 326 326 326 328 330 331 328 328 329 330 330 330 330 330 330 330 332 330 327
302 304 305 302 306 308 309 310 309 306 312 321 323 326 326 326 326 328 330 330 330 330 331 332 331 331 330 333 332 330 328 328
303 304 297 307 311 313 310 312 314 318 320 323 327 328 329 330 328 328 330 333 331 333 332 333 332 333 330 331 332 331 330 328
303 302 305 308 311 314 311 311 316 318 320 325 326 326 327 329 333 333 334 333 334 336 336 336 335 334 330 330 331 330 330 330
302 300 297 308 311 316 316 306 317 321 322 324 325 320 322 324 326 332 335 337 336 337 338 337 336 335 330 332 332 331 331 332
305 302 306 311 312 317 305 308 318 321 324 324 323 325 322 326 327 330 337 337 337 338 337 337 335 336 333 333 332 334 334 333
304 302 300 315 314 310 317 322 322 323 324 325 327 323 324 325 327 333 336 337 337 336 336 337 335 334 333 332 335 334 334 333
309 308 316 317 319 322 322 322 323 324 325 326 325 324 325 325 327 334 336 338 338 337 337 335 335 334 332 334 335 334 334 333
311 316 317 319 321 322 324 324 325 325 325 325 322 322 323 325 327 330 336 336 338 337 336 335 335 334 334 335 335 335 333 334
314 316 318 319 321 323 324 325 326 327 326 326 325 324 325 326 328 329 333 336 337 337 336 336 336 335 335 335 334 332 333 332
306 316 318 319 323 323 323 324 326 324 323 325 325 324 326 326 329 331 329 334 335 336 337 338 336 335 336 336 333 331 329 328
315 321 321 323 323 324 324 325 326 326 326 325 325 325 326 328 332 328 332 333 334 335 336 336 335 336 336 336 333 331 329 327
Wind_Speed
7 4 5 7 6 2 4 1 4 2 5 11 2 3 1 2 2 3 3 3 1 2 4 3 8 12 8 10 9 11 13 12
2 4 3 3 5 4 2 4 7 3 5 6 12 12 8 5 7 5 4 2 1 3 5 6 6 7 12 14 15 14 15 15
3 5 4 5 4 2 0 3 6 8 6 2 10 11 13 9 6 5 5 4 2 3 5 6 5 2 7 11 13 14 14 15
0 2 3 2 2 2 3 4 3 4 8 3 8 12 10 9 6 4 5 7 5 3 2 2 2 6 7 11 11 11 10 9
3 4 3 3 3 3 2 1 9 9 10 3 9 13 10 7 9 10 6 9 6 5 4 4 3 2 7 8 7 9 10 10
9 5 1 4 5 6 6 6 14 11 19 15 15 16 16 7 8 10 10 10 7 7 6 7 6 5 5 5 7 8 9 8
4 4 4 7 9 10 11 15 11 18 17 17 18 15 15 11 5 8 8 8 8 7 6 7 7 6 6 7 8 9 10 11
6 7 9 11 13 14 16 16 14 18 15 13 6 10 8 2 3 7 6 7 8 9 9 9 8 7 6 6 7 8 10 11
14 4 6 11 15 16 12 8 8 12 13 5 12 9 7 5 5 7 7 8 9 11 11 9 9 8 9 8 5 6 8 9
6 2 9 3 3 7 11 13 10 12 13 8 6 6 7 5 6 7 7 7 9 9 9 10 9 9 6 12 8 7 9 9
5 6 7 10 1 2 4 9 5 9 11 6 3 4 4 4 8 9 8 8 9 11 11 11 14 13 11 10 10 10 9 10
4 6 8 1 2 3 3 8 2 4 9 7 2 6 0 3 6 9 8 8 10 11 11 11 11 12 13 12 10 10 10 10
6 7 7 2 2 3 5 5 5 6 9 8 8 4 4 2 5 6 9 10 10 13 12 12 13 12 13 12 11 11 10 10
2 4 9 3 3 5 4 5 7 9 10 11 8 2 5 5 4 6 9 10 11 11 12 12 13 12 12 12 11 11 11 11
7 4 2 3 7 7 6 9 10 9 9 6 7 7 6 3 5 8 8 9 10 11 13 13 12 12 13 12 11 11 11 11
2 5 6 6 6 11 9 11 12 10 11 7 6 2 5 6 6 7 8 8 10 12 13 13 13 13 13 12 12 12 12 11
6 9 11 13 11 11 9 9 10 9 10 11 8 6 5 5 8 9 7 8 10 12 12 14 15 14 13 11 12 12 11 10
11 13 11 13 7 4 9 8 7 6 3 5 5 7 4 7 8 8 9 9 9 11 12 12 14 15 14 12 13 12 10 9
7 4 7 11 10 6 9 8 7 8 8 11 7 5 3 3 7 7 8 9 11 13 12 11 13 14 14 13 13 13 12 11
Wind_Direction
195 156 206 139 213 50 259 179 261 308 262 275 276 329 251 229 221 144 178 177 186 29 17 335 245 226 205 161 150 129 125 119
110 158 112 266 132 208 182 263 283 276 279 291 323 358 351 268 225 182 145 164 120 339 329 323 312 271 193 184 168 147 140 141
198 209 193 154 191 98 271 285 301 299 285 296 300 315 313 300 238 190 156 158 82 21 347 344 340 206 149 152 141 143 156 161
37 353 296 286 120 199 269 284 238 291 281 238 273 301 296 297 203 189 164 135 134 135 113 61 60 115 125 135 147 162 157 144
183 169 165 230 149 123 117 184 258 286 293 216 289 289 287 264 178 149 158 129 132 141 149 144 120 130 142 134 114 121 125 131
275 305 9 222 204 205 244 265 287 266 290 298 294 299 303 263 192 162 157 141 149 153 142 128 109 98 90 94 115 126 133 140
248 238 234 264 259 236 228 257 265 292 294 287 299 314 316 324 191 173 154 136 152 152 132 107 104 100 114 109 115 133 134 134
258 265 244 259 261 260 259 265 257 270 278 291 309 317 327 338 205 199 184 162 161 150 139 133 135 132 121 110 122 134 129 129
274 300 292 265 248 251 263 237 256 275 306 340 315 333 327 289 240 228 208 189 170 168 157 151 146 144 146 128 126 134 120 131
279 243 249 344 274 270 265 276 258 272 281 301 304 309 286 256 245 244 239 215 182 161 152 154 142 149 144 117 180 165 143 146
253 244 305 293 255 250 272 288 306 278 295 291 302 283 257 251 231 239 221 208 181 169 167 159 164 151 134 155 171 164 161 164
170 265 276 31 152 343 204 270 45 301 303 289 250 269 17 213 277 231 210 187 172 168 158 159 156 160 148 169 166 170 170 170
233 260 270 271 277 152 247 337 324 309 300 263 239 325 102 299 327 219 185 177 170 167 164 163 159 173 158 164 180 174 168 168
158 234 267 144 153 237 354 293 286 300 293 270 270 289 264 288 302 195 179 169 172 166 168 163 165 169 164 179 175 169 171 178
226 239 56 232 268 277 264 276 289 287 314 293 275 288 293 271 215 208 184 180 173 173 169 169 168 172 175 183 173 176 180 184
223 234 256 267 256 256 257 258 285 286 296 274 277 321 295 295 242 221 172 168 177 182 178 171 176 182 193 178 183 186 189 193
247 279 283 268 245 255 255 269 282 293 296 269 246 280 246 276 245 226 183 178 180 191 191 186 179 188 191 183 186 197 195 195
273 280 271 275 280 261 246 273 308 296 296 227 185 96 278 252 249 222 190 178 188 196 199 188 191 188 190 189 190 197 195 201
252 287 240 269 292 254 244 269 278 248 252 288 230 104 93 254 258 219 196 188 193 200 203 190 198 196 192 192 194 196 208 206